Pierre, SD

8:11 PM CST on December 17, 2017 (GMT -0600)
Pierre Regional

Weather History for KPIR - July, 2013

Change the Weather History Date:

Thursday, July 18, 2013

  Actual Average Record
Temperature  
Mean Temperature 87 °F 76 °F  
Max Temperature 101 °F 90 °F 109 °F (1977)
Min Temperature 72 °F 63 °F 49 °F (2009)
Degree Days  
Heating Degree Days 0 0  
Month to date heating degree days 0 0  
Since 1 June heating degree days 60 53  
Since 1 July heating degree days 0 0  
Cooling Degree Days 22 11  
Month to date cooling degree days 200 179  
Year to date cooling degree days 341 345  
Since 1 June cooling degree days 319 313  
Growing Degree Days 36 (Base 50)    
Moisture  
Dew Point 64 °F    
Average Humidity 48    
Maximum Humidity 69    
Minimum Humidity 27    
Precipitation  
Precipitation 0.00 in 0.07 in 1.03 in (2008)
Month to date precipitation 2.09 1.50  
Year to date precipitation 13.91 12.27  
Sea Level Pressure  
Sea Level Pressure 29.83 in    
Wind  
Wind Speed 7 mph (South)    
Max Wind Speed 16 mph    
Max Gust Speed 22 mph    
Visibility 10 miles    
Events      
T = Trace of Precipitation, MM = Missing Value Source: NWS Daily Summary

Daily Weather History Graph

Daily Weather History Graph

Search for Another Location

Airport or City:

Trip Planner

Search our weather history database for the weather conditions in past years. The results will help you decide how hot, cold, wet, or windy it might be!

Date:

Astronomy

Jul. 18, 2013 Rise Set
Actual Time 6:14 AM CDT 9:20 PM CDT
Civil Twilight 5:39 AM CDT 9:55 PM CDT
Nautical Twilight 4:54 AM CDT 10:39 PM CDT
Astronomical Twilight 3:59 AM CDT 11:33 PM CDT
Moon 5:18 PM CDT 2:08 AM CDT
Length of Visible Light 16h 16m
Length of Day
15h 06m
Waxing Gibbous, 77% of the Moon is Illuminated
Jul 18
Waxing Gibbous
Jul 22
Full
Jul 29
Last Quarter
Aug 6
New
Aug 14
First Quarter

Hourly Weather History & Observations

Time (CDT) Temp. Heat Index Dew Point Humidity Pressure Visibility Wind Dir Wind Speed Gust Speed Precip Events Conditions
12:53 AM 75.9 °F - 64.0 °F 67% 29.96 in 10.0 mi SSE 9.2 mph - N/A   Clear
1:53 AM 75.9 °F - 63.0 °F 64% 29.94 in 10.0 mi SSE 9.2 mph - N/A   Clear
2:53 AM 73.0 °F - 63.0 °F 71% 29.93 in 10.0 mi NE 4.6 mph - N/A   Clear
3:53 AM 75.9 °F - 62.1 °F 62% 29.90 in 10.0 mi South 10.4 mph - N/A   Clear
4:53 AM 73.9 °F - 61.0 °F 64% 29.89 in 10.0 mi South 5.8 mph - N/A   Clear
5:53 AM 73.0 °F - 61.0 °F 66% 29.88 in 10.0 mi South 9.2 mph - N/A   Clear
6:53 AM 73.0 °F - 61.0 °F 66% 29.88 in 10.0 mi South 9.2 mph - N/A   Clear
7:53 AM 75.0 °F - 63.0 °F 66% 29.88 in 10.0 mi SSE 9.2 mph - N/A   Clear
8:53 AM 80.1 °F 81.5 °F 63.0 °F 56% 29.86 in 10.0 mi SSW 12.7 mph - N/A   Clear
9:53 AM 84.0 °F 84.9 °F 63.0 °F 49% 29.85 in 10.0 mi SSW 16.1 mph - N/A   Clear
10:53 AM 87.1 °F 88.3 °F 64.0 °F 46% 29.83 in 10.0 mi SSW 12.7 mph - N/A   Clear
11:53 AM 91.0 °F 93.8 °F 66.0 °F 44% 29.83 in 10.0 mi SSW 8.1 mph - N/A   Clear
12:53 PM 93.0 °F 94.6 °F 64.0 °F 38% 29.81 in 10.0 mi SSW 8.1 mph - N/A   Clear
1:53 PM 96.1 °F 97.3 °F 63.0 °F 33% 29.80 in 10.0 mi Variable 4.6 mph - N/A   Clear
2:53 PM 98.1 °F 99.1 °F 62.1 °F 30% 29.78 in 10.0 mi Calm Calm - N/A   Clear
3:53 PM 98.1 °F 98.6 °F 61.0 °F 29% 29.76 in 10.0 mi ESE 4.6 mph - N/A   Clear
4:53 PM 100.0 °F 100.7 °F 60.1 °F 27% 29.75 in 10.0 mi Calm Calm - N/A   Clear
5:53 PM 97.0 °F 98.3 °F 63.0 °F 32% 29.76 in 10.0 mi NNE 4.6 mph - N/A   Clear
6:53 PM 93.0 °F 95.9 °F 66.0 °F 41% 29.77 in 10.0 mi North 6.9 mph - N/A   Scattered Clouds
7:53 PM 91.9 °F 97.4 °F 70.0 °F 48% 29.76 in 10.0 mi North 5.8 mph - N/A   Clear
8:53 PM 89.1 °F 95.0 °F 71.1 °F 55% 29.76 in 10.0 mi Calm Calm - N/A   Clear
9:53 PM 82.0 °F 86.3 °F 71.1 °F 69% 29.79 in 10.0 mi North 5.8 mph - N/A   Clear
10:53 PM 78.1 °F - 66.9 °F 68% 29.82 in 10.0 mi North 8.1 mph - N/A   Clear
11:53 PM 82.0 °F 83.8 °F 64.9 °F 56% 29.83 in 10.0 mi North 12.7 mph - N/A   Clear